sat.trackr.live / text

‹ back to catalog

STARLINK-5747

NORAD 55574 · 2023-020F

PAYLOAD ACTIVE UNKNOWN

§ Identity

Operator
Country
US
Launch date
2023-02-12
Launch site
AFETR
Launch vehicle
Mass (kg)
RCS (m²)

Purposes: comms

External: N2YO · Heavens-Above · Gunter

§ Orbital elements

Epoch: 2026-05-24T19:58:40.557504Z

Period
94.27 min
Inclination
43.0052°
Eccentricity
0.0003377
Mean motion
15.27580761 rev/d
Perigee alt
480.7 km
Apogee alt
485.4 km
Semi-major
6,861.2 km
B*
-6.5999e-5
RAAN
298.9576°
Arg perigee
246.1821°
Mean anomaly
113.8677°
Rev number
18,051

§ Raw data

STARLINK-57471 55574U 23020F   26144.83241386 -.00002079  00000+0 -65999-4 0  99962 55574  43.0052 298.9576 0003377 246.1821 113.8677 15.27580761180512

JSON: /api/v1/satellites/55574 · /tle

For live sub-satellite position, see the globe view (requires WebGL).

§ Visibility from observer

Set your observer location to see the next 7 days of passes ≥ 10°. The values pass through the URL so the page stays shareable.

No JS? Fill the form by hand. The geolocation button needs JavaScript.